Weather History for VTUK - October, 2011

Change the Weather History Date:

Thursday, October 13, 2011

  Actual Average Record
Temperature  
Mean Temperature 79 °F -  
Max Temperature 86 °F 88 °F - ()
Min Temperature 72 °F 70 °F - ()
Cooling Degree Days 14    
Growing Degree Days 29 (Base 50)    
Moisture  
Dew Point 75 °F    
Average Humidity 90    
Maximum Humidity 100    
Minimum Humidity 74    
Precipitation  
Precipitation 0.00 in 0.09 in - ()
Sea Level Pressure  
Sea Level Pressure 29.78 in    
Wind  
Wind Speed 3 mph ()    
Max Wind Speed 7 mph    
Max Gust Speed -    
Visibility 5.4 miles    
Events Rain , Thunderstorm    
T = Trace of Precipitation, MM = Missing Value Source: Averaged Metar Reports

Daily Weather History Graph

Daily Weather History Graph

Search for Another Location

Airport or City:

Trip Planner

Search our weather history database for the weather conditions in past years. The results will help you decide how hot, cold, wet, or windy it might be!

Date:

Astronomy

Oct. 13, 2011 Rise Set
Actual Time 6:00 AM ICT 5:49 PM ICT
Civil Twilight 5:39 AM ICT 6:11 PM ICT
Nautical Twilight 5:13 AM ICT 6:36 PM ICT
Astronomical Twilight 4:48 AM ICT 7:01 PM ICT
Moon 6:28 PM ICT (10/13) 6:43 AM ICT (10/13)
Length of Visible Light 12h 32m
Length of Day
11h 48m
Full, 99% of the Moon is Illuminated
Oct 13
Full
Oct 20
Last Quarter
Oct 27
New
Nov 2
First Quarter
Nov 11
Full

Hourly Weather History & Observations

Time (ICT) Temp. Heat Index Dew Point Humidity Pressure Visibility Wind Dir Wind Speed Gust Speed Precip Events Conditions
1:00 AM 78 °F - 76 °F 93% 29.81 in 6 mi Calm Calm - -   Mist
6:00 AM 73.4 °F - 71.6 °F 94% 29.80 in 1.2 mi ENE 4.6 mph - N/A Rain , Thunderstorm Thunderstorms and Rain
7:00 AM 74 °F - 72 °F 94% 29.82 in 4 mi Calm Calm - - Rain , Thunderstorm Thunderstorms and Rain
7:00 AM 73.4 °F - 71.6 °F 94% 29.83 in 4.3 mi Variable 2.3 mph - N/A Rain , Thunderstorm Thunderstorms and Rain
8:00 AM 73.4 °F - 71.6 °F 94% 29.86 in 3.7 mi Variable 2.3 mph - N/A Rain Light Rain
9:00 AM 75.2 °F - 75.2 °F 100% 29.86 in 3.1 mi NW 2.3 mph - N/A Rain Rain
10:00 AM 75.2 °F - 75.2 °F 100% 29.86 in 5.6 mi West 4.6 mph - N/A Rain Rain
11:00 AM 77.0 °F - 77.0 °F 100% 29.86 in 6.2 mi WNW 5.8 mph - N/A   Mostly Cloudy
12:00 PM 80.6 °F - - N/A% 29.80 in 6.2 mi WNW 5.8 mph - N/A   Mostly Cloudy
1:00 PM 82 °F - 75 °F 74% 29.78 in 6 mi WSW 5.8 mph - -   Partly Cloudy
1:00 PM 82.4 °F 90.9 °F 77.0 °F 84% 29.77 in 6.2 mi West 6.9 mph - N/A   Mostly Cloudy
2:00 PM 82.4 °F 90.9 °F 77.0 °F 84% 29.74 in 6.2 mi West 5.8 mph - N/A   Mostly Cloudy
3:00 PM 84.2 °F 92.3 °F 75.2 °F 74% 29.71 in 6.2 mi NW 5.8 mph - N/A   Mostly Cloudy
4:00 PM 84.2 °F 94.1 °F 77.0 °F 79% 29.71 in 6.2 mi Variable 1.2 mph - N/A   Mostly Cloudy
5:00 PM 82.4 °F 90.9 °F 77.0 °F 84% 29.71 in 6.2 mi West 3.5 mph - N/A   Mostly Cloudy
6:00 PM 80.6 °F 87.1 °F 77.0 °F 89% 29.71 in 6.2 mi WSW 2.3 mph - N/A   Mostly Cloudy
7:00 PM 82 °F - 76 °F 78% 29.74 in 6 mi WSW 2.3 mph - -   Scattered Clouds
7:00 PM 78.8 °F - 78.8 °F 100% 29.74 in 6.2 mi WSW 2.3 mph - N/A   Mostly Cloudy
8:00 PM 78.8 °F - 78.8 °F 100% 29.77 in 6.2 mi Calm Calm - N/A   Mostly Cloudy